Weather History for Singapore, Singapore

Change the Weather History Date:

Sunday, October 6, 2013

  Actual Average Record
Temperature  
Mean Temperature 80 °F -  
Max Temperature 89 °F 88 °F 91 °F (2007)
Min Temperature 72 °F 75 °F 72 °F (2013)
Cooling Degree Days 16    
Growing Degree Days 30 (Base 50)    
Moisture  
Dew Point 73 °F    
Average Humidity 72    
Maximum Humidity 89    
Minimum Humidity 49    
Precipitation  
Precipitation 0.04 in 0.24 in - ()
Sea Level Pressure  
Sea Level Pressure 29.82 in    
Wind  
Wind Speed 5 mph ()    
Max Wind Speed 14 mph    
Max Gust Speed 28 mph    
Visibility 6.5 miles    
Events Rain    
Averages and records for this station are not official NWS values.
T = Trace of Precipitation, MM = Missing Value Source: Averaged Metar Reports

Daily Weather History Graph

Daily Weather History Graph

Search for Another Location

Airport:

Trip Planner

Search our weather history database for the weather conditions in past years. The results will help you decide how hot, cold, wet, or windy it might be!

Date:

Astronomy

Oct. 06, 2013 Rise Set
Actual Time 6:49 AM SGT 6:54 PM SGT
Civil Twilight 6:28 AM SGT 7:15 PM SGT
Nautical Twilight 6:04 AM SGT 7:39 PM SGT
Astronomical Twilight 5:40 AM SGT 8:03 PM SGT
Moon 7:36 AM SGT (10/6) 7:59 PM SGT (10/6)
Length of Visible Light 12h 47m
Length of Day
12h 05m
New Moon, 2% of the Moon is Illuminated
Oct 6
New Moon
Oct 12
First Quarter
Oct 19
Full
Oct 27
Last Quarter
Nov 3
New

Hourly Weather History & Observations

Time (SGT) Temp. Heat Index Dew Point Humidity Pressure Visibility Wind Dir Wind Speed Gust Speed Precip Events Conditions
12:00 AM 80.6 °F 86.2 °F 75.2 °F 84% 29.86 in 6.2 mi Variable 2.3 mph - N/A   Mostly Cloudy
12:30 AM 82.4 °F 89.5 °F 75.2 °F 79% 29.86 in 6.2 mi Variable 2.3 mph - N/A   Mostly Cloudy
1:00 AM 80.6 °F 86.2 °F 75.2 °F 84% 29.86 in 6.2 mi Variable 2.3 mph - N/A   Mostly Cloudy
1:30 AM 80.6 °F 86.2 °F 75.2 °F 84% 29.83 in 6.2 mi Variable 2.3 mph - N/A   Mostly Cloudy
2:00 AM 81 °F - 75 °F 78% 29.85 in 9 mi WSW 2.3 mph - -   Haze
2:00 AM 80.6 °F 86.2 °F 75.2 °F 84% 29.83 in 6.2 mi Variable 2.3 mph - N/A   Mostly Cloudy
2:30 AM 80.6 °F 86.2 °F 75.2 °F 84% 29.83 in 6.2 mi Variable 2.3 mph - N/A   Mostly Cloudy
3:00 AM 80.6 °F 86.2 °F 75.2 °F 84% 29.83 in 6.2 mi SW 2.3 mph - N/A   Mostly Cloudy
3:30 AM 80.6 °F 86.2 °F 75.2 °F 84% 29.83 in 6.2 mi Variable 2.3 mph - N/A   Mostly Cloudy
4:00 AM 80.6 °F 86.2 °F 75.2 °F 84% 29.83 in 6.2 mi SW 3.5 mph - N/A   Mostly Cloudy
4:30 AM 75.2 °F - 71.6 °F 89% 29.86 in 2.8 mi West 13.8 mph 27.6 mph N/A Rain Light Rain Showers
5:00 AM 75.2 °F - 71.6 °F 89% 29.86 in 3.7 mi West 10.4 mph - N/A Rain Light Rain Showers
5:30 AM 75.2 °F - 71.6 °F 89% 29.86 in 3.1 mi West 10.4 mph - N/A Rain Light Rain
6:00 AM 75.2 °F - 71.6 °F 89% 29.86 in 3.1 mi WNW 10.4 mph - N/A Rain Rain
6:30 AM 75.2 °F - 71.6 °F 89% 29.86 in 4.3 mi WNW 9.2 mph - N/A Rain Light Rain
7:00 AM 75.2 °F - 71.6 °F 89% 29.89 in 5.6 mi WNW 6.9 mph - N/A   Mostly Cloudy
7:30 AM 75.2 °F - 71.6 °F 89% 29.89 in 6.2 mi WNW 5.8 mph - N/A   Mostly Cloudy
8:00 AM 76 °F - 71 °F 78% 29.89 in 7 mi WNW 4.6 mph - -   Haze
8:00 AM 77.0 °F - 69.8 °F 78% 29.89 in 6.2 mi WNW 4.6 mph - N/A   Mostly Cloudy
8:30 AM 77.0 °F - 71.6 °F 83% 29.89 in 6.2 mi Variable 2.3 mph - N/A   Mostly Cloudy
9:00 AM 80.6 °F 84.6 °F 71.6 °F 74% 29.86 in 6.2 mi Variable 5.8 mph - N/A   Mostly Cloudy
9:30 AM 82.4 °F 86.3 °F 69.8 °F 66% 29.86 in 6.2 mi West 8.1 mph - N/A   Mostly Cloudy
10:00 AM 84.2 °F 89.6 °F 71.6 °F 66% 29.86 in 6.2 mi West 4.6 mph - N/A   Mostly Cloudy
10:30 AM 86.0 °F 91.8 °F 71.6 °F 62% 29.86 in 6.2 mi Variable 5.8 mph - N/A   Mostly Cloudy
11:00 AM 87 °F - 71 °F 49% 29.86 in 11 mi WSW 5.8 mph - -   Haze
11:00 AM 87.8 °F 92.6 °F 69.8 °F 55% 29.86 in 6.2 mi Variable 5.8 mph - N/A   Mostly Cloudy
11:30 AM 86.0 °F 95.1 °F 75.2 °F 70% 29.83 in 6.2 mi South 10.4 mph - N/A   Mostly Cloudy
12:00 PM 86.0 °F 93.4 °F 73.4 °F 66% 29.83 in 6.2 mi South 10.4 mph - N/A   Mostly Cloudy
12:30 PM 86.0 °F 95.1 °F 75.2 °F 70% 29.83 in 6.2 mi SSW 9.2 mph - N/A   Mostly Cloudy
1:00 PM 86.0 °F 93.4 °F 73.4 °F 66% 29.83 in 6.2 mi SSW 8.1 mph - N/A   Mostly Cloudy
1:30 PM 87.8 °F 93.8 °F 71.6 °F 58% 29.80 in 6.2 mi SSW 6.9 mph - N/A   Mostly Cloudy
2:00 PM 88 °F - 72 °F 51% 29.78 in 11 mi SSW 8.1 mph - -   Haze
2:00 PM 87.8 °F 93.8 °F 71.6 °F 58% 29.77 in 6.2 mi SSW 8.1 mph - N/A   Mostly Cloudy
2:30 PM 89.6 °F 94.7 °F 69.8 °F 52% 29.77 in 6.2 mi SSW 8.1 mph - N/A   Mostly Cloudy
3:00 PM 87.8 °F 93.8 °F 71.6 °F 58% 29.77 in 6.2 mi SSW 9.2 mph - N/A   Mostly Cloudy
3:30 PM 86.0 °F 93.4 °F 73.4 °F 66% 29.74 in 6.2 mi SSW 9.2 mph - N/A   Mostly Cloudy
4:00 PM 87.8 °F 95.6 °F 73.4 °F 62% 29.74 in 6.2 mi SSW 6.9 mph - N/A   Mostly Cloudy
4:30 PM 87.8 °F 95.6 °F 73.4 °F 62% 29.74 in 6.2 mi SSW 4.6 mph - N/A   Mostly Cloudy
5:00 PM 88 °F - 74 °F 55% 29.74 in 14 mi South 5.8 mph - -   Haze
5:00 PM 87.8 °F 95.6 °F 73.4 °F 62% 29.74 in 6.2 mi South 5.8 mph - N/A   Mostly Cloudy
5:30 PM 86.0 °F 93.4 °F 73.4 °F 66% 29.74 in 6.2 mi SSW 8.1 mph - N/A   Mostly Cloudy
6:00 PM 86.0 °F 93.4 °F 73.4 °F 66% 29.74 in 6.2 mi SSW 4.6 mph - N/A   Mostly Cloudy
6:30 PM 86.0 °F 91.8 °F 71.6 °F 62% 29.74 in 6.2 mi SSW 3.5 mph - N/A   Mostly Cloudy
7:00 PM 86.0 °F 91.8 °F 71.6 °F 62% 29.77 in 6.2 mi WSW 3.5 mph - N/A   Mostly Cloudy
7:30 PM 84.2 °F 89.6 °F 71.6 °F 66% 29.77 in 6.2 mi Variable 1.2 mph - N/A   Mostly Cloudy
8:00 PM 85 °F - 71 °F 55% 29.79 in 12 mi SW 3.5 mph - -   Haze
8:00 PM 84.2 °F 89.6 °F 71.6 °F 66% 29.77 in 6.2 mi SW 3.5 mph - N/A   Mostly Cloudy
8:30 PM 84.2 °F 89.6 °F 71.6 °F 66% 29.80 in 6.2 mi Variable 2.3 mph - N/A   Mostly Cloudy
9:00 PM 84.2 °F 89.6 °F 71.6 °F 66% 29.80 in 6.2 mi Variable 2.3 mph - N/A   Mostly Cloudy
9:30 PM 82.4 °F 88.2 °F 73.4 °F 74% 29.83 in 6.2 mi SW 3.5 mph - N/A   Mostly Cloudy
10:00 PM 82.4 °F 89.5 °F 75.2 °F 79% 29.83 in 6.2 mi Variable 2.3 mph - N/A   Mostly Cloudy
10:30 PM 82.4 °F 89.5 °F 75.2 °F 79% 29.83 in 6.2 mi Variable 2.3 mph - N/A   Mostly Cloudy
11:00 PM 82 °F - 75 °F 73% 29.86 in 9 mi SW 3.5 mph - -   Haze
11:00 PM 82.4 °F 89.5 °F 75.2 °F 79% 29.86 in 6.2 mi SW 3.5 mph - N/A   Mostly Cloudy
11:30 PM 82.4 °F 89.5 °F 75.2 °F 79% 29.86 in 6.2 mi SW 3.5 mph - N/A   Mostly Cloudy